パンスターズ彗星

C/2022 S5 ( PanSTARRS )

English version
Home page
Updated on May 13, 2024

---------------------------------------------------------------------

・ プロフィール

発見日 2022年9月24日
発見光度 19.5等
発見者 Pan-STARRS 2 telescope (Haleakala)

・ 写真集

・ 軌道要素

Epoch 2023 Feb. 25.0 TT = JDT 2460000.5
T 2022 Nov. 27.45785 TT                                 Rudenko
q   2.1787890            (2000.0)            P               Q
n   0.01069888     Peri.  232.77591     +0.82669554     -0.40245252
a  20.3975120      Node   214.85917     +0.10004515     -0.58255775
e   0.8931836      Incl.  136.53269     -0.55368353     -0.70615751
P  92.1
>From 102 observations 2022 Aug. 12-Nov. 18, mean residual 0".5.

・ 光度変化

        m1 = 15.0 + 5 logΔ + 10.0 log r

---------------------------------------------------------------------

軌道要素はM.P.E.C. 2023-H131に掲載されたものです。
光度グラフはComet for Windowsで作成したものです。

---------------------------------------------------------------------

Copyright(C) Seiichi Yoshida (comet@aerith.net). All rights reserved.